Flag for U.S.A. Weather past 2 weeks in Kennebunk, Maine, U.S.A.

Now
68 °F

Sunny.


Feels Like: 68 °F
Forecast: 53 / 72 °F
Wind: 6 mph from South

Location: Sanford Municipal

Current Time: Aug 29, 2014 at 5:07:54 PM

Latest Report: Aug 29, 2014 at 3:15 PM


Visibility: 10 mi

Pressure: 30.21 "Hg

Humidity: 56%

Dew point: 52 °F

Location of KennebunkLocation

Historic Weather in Kennebunk — Graph

°F

Kennebunk temperature yesterday

Maximum temperature yesterday: 77 °F (at 11:55 AM)
Minimum temperature yesterday: 57 °F (at 11:55 PM)
Average temperature yesterday: 69 °F

Past Weeks' High & Low Weather Summary

 TemperatureHumidityPressure
High88 °F (Aug 25, 2:35 PM)88% (Aug 17, 5:35 AM)30.20 "Hg (Aug 17, 5:35 AM)
Low45 °F (Aug 19, 4:55 AM)34% (Aug 28, 2:35 PM)29.77 "Hg (Aug 17, 3:35 PM)
Average65 °F67%30.00 "Hg
* Reported Aug 15 1:15 PM — Aug 29 2:55 PM, Kennebunk, Weather by CustomWeather, © 2014

Note: Actual official high and low records may vary slightly from our data, if they occured in-between our weather recording intervals... More about our weather records

Advertising

Kennebunk weather history for previous 24 hours

 ConditionsComfort  
Time TempWeatherWind HumidityBarometerVisibility
2:55 PM
Aug 29
68 °FSunny.8 mph56%30.20 "Hg10 mi
2:35 PM70 °FSunny.5 mph53%30.20 "Hg10 mi
1:55 PM70 °FSunny.7 mph53%30.20 "Hg10 mi
1:35 PM70 °FSunny.8 mph53%30.20 "Hg10 mi
1:15 PM68 °FSunny.5 mph56%30.19 "Hg10 mi
12:55 PM70 °FSunny.8 mph53%30.19 "Hg10 mi
12:35 PM68 °FPassing clouds.7 mph56%30.20 "Hg10 mi
12:15 PM70 °FSunny.8 mph53%30.20 "Hg10 mi
11:55 AM70 °FSunny.6 mph57%30.20 "Hg10 mi
11:35 AM72 °FPassing clouds.7 mph44%30.19 "Hg10 mi
11:15 AM70 °FPartly sunny.8 mph46%30.19 "Hg10 mi
10:55 AM70 °FPartly sunny.12 mph50%30.18 "Hg10 mi
10:35 AM70 °FPassing clouds.7 mph53%30.18 "Hg10 mi
9:55 AM68 °FSunny.8 mph53%30.17 "Hg10 mi
9:35 AM66 °FSunny.9 mph52%30.17 "Hg10 mi
9:15 AM66 °FSunny.9 mph52%30.16 "Hg10 mi
8:55 AM64 °FSunny.10 mph56%30.16 "Hg10 mi
8:35 AM64 °FSunny.6 mph56%30.14 "Hg10 mi
7:55 AM63 °FSunny.6 mph59%30.13 "Hg10 mi
7:35 AM61 °FSunny.3 mph63%30.12 "Hg10 mi
7:15 AM57 °FSunny.6 mph72%30.11 "Hg10 mi
6:55 AM57 °FClear.7 mph72%30.11 "Hg10 mi
6:35 AM55 °FClear.3 mph77%30.10 "Hg10 mi
6:15 AM54 °FClear.5 mph77%30.09 "Hg10 mi
5:55 AM55 °FClear.5 mph72%30.08 "Hg10 mi
5:35 AM54 °FClear.3 mph77%30.07 "Hg10 mi
5:15 AM54 °FClear.6 mph77%30.06 "Hg10 mi
4:55 AM54 °FClear.7 mph77%30.05 "Hg10 mi
4:35 AM54 °FClear.7 mph72%30.04 "Hg10 mi
4:15 AM54 °FClear.7 mph77%30.04 "Hg10 mi
3:55 AM48 °FClear.6 mph82%30.03 "Hg10 mi
3:35 AM48 °FClear.6 mph82%30.03 "Hg10 mi
3:15 AM48 °FClear.5 mph82%30.03 "Hg10 mi
2:55 AM46 °FClear.No wind87%30.02 "Hg10 mi
2:35 AM48 °FClear.3 mph82%30.02 "Hg10 mi
2:15 AM48 °FClear.No wind82%30.02 "Hg10 mi
1:55 AM48 °FClear.No wind82%30.01 "Hg10 mi
1:35 AM48 °FClear.3 mph82%30.01 "Hg10 mi
1:15 AM48 °FClear.3 mph82%30.00 "Hg10 mi
12:55 AM52 °FClear.No wind77%30.00 "Hg10 mi
12:35 AM52 °FClear.No wind77%29.99 "Hg10 mi
12:15 AM55 °FClear.No wind67%29.99 "Hg10 mi
11:55 PM
Aug 28
57 °FClear.6 mph63%29.98 "Hg10 mi
11:35 PM61 °FClear.5 mph55%29.98 "Hg10 mi
11:15 PM59 °FClear.6 mph59%29.98 "Hg10 mi
10:55 PM61 °FClear.7 mph55%29.97 "Hg10 mi
10:35 PM61 °FClear.7 mph55%29.97 "Hg10 mi
10:15 PM61 °FClear.7 mph55%29.96 "Hg10 mi
9:55 PM63 °FClear.5 mph52%29.96 "Hg10 mi
9:35 PM64 °FClear.7 mph49%29.95 "Hg10 mi
9:15 PM64 °FPassing clouds.7 mph49%29.94 "Hg10 mi
8:55 PM64 °FPassing clouds.7 mph49%29.94 "Hg10 mi
8:35 PM66 °FOvercast.8 mph46%29.94 "Hg10 mi
7:55 PM66 °FPassing clouds.9 mph46%29.91 "Hg10 mi
7:35 PM66 °FPassing clouds.9 mph46%29.90 "Hg10 mi
7:15 PM66 °FSunny.9 mph46%29.89 "Hg10 mi
6:55 PM70 °FSunny.10 mph40%29.89 "Hg10 mi
6:35 PM70 °FSunny.8 mph40%29.87 "Hg10 mi
6:15 PM72 °FSunny.12 mph38%29.86 "Hg10 mi
5:55 PM72 °FSunny.13 mph41%29.86 "Hg10 mi
5:35 PM73 °FSunny.7 mph38%29.85 "Hg10 mi
5:15 PM72 °FPassing clouds.7 mph41%29.84 "Hg10 mi
Weather by CustomWeather, © 2014

See weather overviewHow to use our weather pages